FW1302 Weather Reports


time (UTC)temp
C
wind
direction
speed
KPH
gust
KPH
rain 1hr
cm
rain 24hr
cm
rain mn
cm
humidity
%
barometer
mb
20260831051611 15 67 0.0 0.0 0.00 0.00 0.00 68 1026.2
20260831050710 16 67 0.0 0.0 0.00 0.00 0.00 67 1026.3
20260831045809 16 45 0.0 0.0 0.00 0.00 0.00 66 1026.3
20260831044908 16 45 3.2 3.2 0.00 0.00 0.00 65 1026.2
20260831044811 16 45 1.6 3.2 0.00 0.00 0.00 66 1026.3
20260831041910 18 315 0.0 1.6 0.00 0.00 0.00 66 1026.3
20260831040911 18 315 3.2 6.4 0.00 0.00 0.00 64 1026.2
20260831035912 18 270 1.6 3.2 0.00 0.00 0.00 60 1026.2
20260831034911 18 225 1.6 3.2 0.00 0.00 0.00 57 1026.2
20260831033911 18 157 0.0 0.0 0.00 0.00 0.00 56 1026.2
20260831033010 19 225 8.0 9.7 0.00 0.00 0.00 57 1026.1
20260831032010 19 212 6.4 12.9 0.00 0.00 0.00 55 1026.0
20260831031108 19 211 6.4 16.1 0.00 0.00 0.00 55 1026.0
20260831030109 20 218 6.4 9.7 0.00 0.00 0.00 55 1025.9
20260831024109 20 225 11.3 14.5 0.00 0.00 0.00 51 1025.9
20260831023110 20 216 16.1 22.5 0.00 0.00 0.00 50 1025.9
20260831022208 20 225 16.1 22.5 0.00 0.00 0.00 50 1026.0
20260831021209 21 229 16.1 22.5 0.00 0.00 0.00 48 1025.9
20260831015308 21 231 11.3 22.5 0.00 0.00 0.00 47 1025.9
20260831013309 21 227 16.1 24.1 0.00 0.00 0.00 47 1026.1
20260831012408 21 224 12.9 22.5 0.00 0.00 0.00 45 1026.0
20260831011410 21 224 11.3 19.3 0.00 0.00 0.00 45 1026.0
20260831010411 21 225 16.1 20.9 0.00 0.00 0.00 45 1026.1
20260831005509 21 225 19.3 22.5 0.00 0.00 0.00 43 1026.2
20260831004511 21 228 16.1 20.9 0.00 0.00 0.00 43 1026.3
20260831003609 21 230 14.5 20.9 0.00 0.00 0.00 44 1026.3
20260831002708 21 228 14.5 24.1 0.00 0.00 0.00 43 1026.3
20260831001709 21 227 14.5 20.9 0.00 0.00 0.00 43 1026.4
20260831000711 21 226 24.1 29.0 0.00 0.00 0.00 43 1026.4
20260830235810 21 225 22.5 30.6 0.00 0.00 0.00 43 1026.5
20260830234811 21 196 22.5 30.6 0.00 0.00 0.00 43 1026.6
20260830233810 21 223 12.9 17.7 0.00 0.00 0.00 43 1026.7
20260830232908 21 221 12.9 20.9 0.00 0.00 0.00 43 1026.8
20260830231911 21 215 14.5 24.1 0.00 0.00 0.00 43 1026.8
20260830231008 21 205 14.5 19.3 0.00 0.00 0.00 45 1027.0
20260830230010 20 223 14.5 20.9 0.00 0.00 0.00 44 1027.2
20260830225008 20 215 20.9 27.4 0.00 0.00 0.00 44 1027.2
20260830224010 20 218 17.7 24.1 0.00 0.00 0.00 45 1027.4
20260830223008 20 223 22.5 32.2 0.00 0.00 0.00 45 1027.6
20260830222011 20 219 20.9 29.0 0.00 0.00 0.00 46 1027.8
20260830220109 20 211 19.3 30.6 0.00 0.00 0.00 46 1027.9
20260830215209 20 215 16.1 20.9 0.00 0.00 0.00 46 1028.1
20260830214211 20 212 19.3 27.4 0.00 0.00 0.00 47 1028.5
20260830213210 19 211 22.5 27.4 0.00 0.00 0.00 47 1028.6
20260830212211 19 215 20.9 25.7 0.00 0.00 0.00 48 1028.6
20260830211212 19 220 17.7 24.1 0.00 0.00 0.00 49 1028.9
20260830210211 18 214 16.1 22.5 0.00 0.00 0.00 49 1029.0
20260830210110 18 222 12.9 17.7 0.00 0.00 0.00 50 1028.9
20260830204109 18 215 22.5 32.2 0.00 0.00 0.00 52 1029.1
20260830203110 18 212 20.9 27.4 0.00 0.00 0.00 52 1029.4
20260830201110 18 213 20.9 27.4 0.00 0.00 0.00 51 1029.5
20260830200110 18 223 11.3 20.9 0.00 0.00 0.00 53 1029.7
20260830195110 18 212 16.1 33.8 0.00 0.00 0.00 52 1029.8
20260830194110 17 208 14.5 22.5 0.00 0.00 0.00 53 1029.9
20260830193208 17 206 20.9 27.4 0.00 0.00 0.00 53 1029.9
20260830192210 17 206 12.9 17.7 0.00 0.00 0.00 53 1030.1
20260830191210 17 213 17.7 27.4 0.00 0.00 0.00 55 1030.0
20260830191109 17 220 17.7 22.5 0.00 0.00 0.00 55 1030.2
20260830190109 17 215 19.3 29.0 0.00 0.00 0.00 55 1030.1
20260830184110 17 221 14.5 20.9 0.00 0.00 0.00 55 1030.5
20260830183110 16 225 11.3 19.3 0.00 0.00 0.00 55 1030.5
20260830182208 16 221 12.9 20.9 0.00 0.00 0.00 58 1030.4
20260830181210 16 227 14.5 20.9 0.00 0.00 0.00 60 1030.6
20260830180210 16 232 16.1 22.5 0.00 0.00 0.00 61 1030.6
20260830175308 16 215 12.9 25.7 0.00 0.00 0.00 62 1030.8
20260830174310 16 218 17.7 24.1 0.00 0.00 0.00 64 1030.6
20260830173308 15 209 6.4 14.5 0.00 0.00 0.00 63 1030.8
20260830172311 15 219 17.7 20.9 0.00 0.00 0.00 66 1030.8
20260830171312 15 233 16.1 22.5 0.00 0.00 0.00 65 1030.7
20260830164409 15 230 11.3 16.1 0.00 0.00 0.00 69 1030.9
20260830164311 15 225 12.9 14.5 0.00 0.00 0.00 68 1030.9
20260830163408 15 213 8.0 14.5 0.00 0.00 0.00 70 1031.1
20260830162408 14 210 8.0 19.3 0.00 0.00 0.00 72 1031.2
20260830161408 14 225 14.5 17.7 0.00 0.00 0.00 73 1031.2
20260830160507 13 225 9.7 12.9 0.00 0.00 0.00 74 1031.5
20260830154608 13 219 9.7 16.1 0.00 0.00 0.00 74 1031.5
20260830153610 13 202 8.0 16.1 0.00 0.00 0.00 75 1031.6
20260830152708 13 225 11.3 16.1 0.00 0.00 0.00 76 1031.6
20260830151709 13 225 8.0 12.9 0.00 0.00 0.00 78 1031.7
20260830150807 13 202 6.4 19.3 0.00 0.00 0.00 78 1031.8
20260830145808 12 213 4.8 6.4 0.00 0.00 0.00 80 1031.9
20260830144810 12 192 1.6 16.1 0.00 0.00 0.00 82 1031.8
20260830143810 12 90 1.6 6.4 0.00 0.00 0.00 82 1031.9
20260830141909 11 103 3.2 8.0 0.00 0.00 0.00 85 1031.9
20260830140909 11 90 1.6 4.8 0.00 0.00 0.00 86 1031.8
20260830140811 11 90 3.2 4.8 0.00 0.00 0.00 86 1031.8
20260830135811 10 99 4.8 9.7 0.00 0.03 0.00 86 1031.7
20260830134810 10 90 3.2 6.4 0.00 0.03 0.00 87 1031.5
20260830132912 9 50 1.6 4.8 0.00 0.03 0.00 86 1031.4
20260830132009 8 67 3.2 4.8 0.00 0.03 0.00 85 1031.5
20260830131010 7 67 1.6 3.2 0.00 0.03 0.00 85 1031.3
20260830125010 6 67 0.0 1.6 0.00 0.03 0.00 84 1031.3
20260830124009 12 67 1.6 3.2 0.00 0.03 0.00 83 1031.1
20260830121110 13 163 0.0 0.0 0.00 0.03 0.00 81 1031.2
20260830120209 13 270 8.0 11.3 0.00 0.03 0.00 81 1031.0
20260830115211 13 225 4.8 8.0 0.00 0.03 0.00 81 1031.1
20260830114210 13 229 8.0 11.3 0.00 0.03 0.00 79 1031.0
20260830113208 13 230 8.0 11.3 0.00 0.03 0.00 79 1030.8
20260830112210 13 223 14.5 19.3 0.00 0.03 0.00 80 1030.8
20260830111307 13 224 12.9 20.9 0.00 0.03 0.00 80 1030.9
20260830105309 14 226 11.3 17.7 0.00 0.03 0.00 78 1030.9
20260830104310 14 226 14.5 22.5 0.00 0.03 0.00 78 1030.8
20260830103309 14 226 9.7 11.3 0.00 0.03 0.00 77 1030.7
20260830102310 14 223 9.7 14.5 0.00 0.03 0.00 77 1030.8
20260830101408 14 228 12.9 17.7 0.00 0.03 0.00 78 1030.8
20260830095411 14 224 8.0 14.5 0.00 0.03 0.00 77 1030.7
20260830093408 14 226 11.3 16.1 0.00 0.03 0.00 77 1030.7
20260830092508 14 259 6.4 9.7 0.00 0.03 0.00 77 1030.8
20260830091508 14 226 9.7 12.9 0.00 0.03 0.00 77 1030.7
20260830090510 14 241 3.2 6.4 0.00 0.03 0.00 77 1030.7
20260830085609 15 251 6.4 9.7 0.00 0.03 0.00 76 1030.7
20260830085508 15 238 8.0 9.7 0.00 0.03 0.00 76 1030.7
20260830084510 15 238 9.7 14.5 0.00 0.03 0.00 74 1030.7
20260830083510 15 227 8.0 9.7 0.00 0.03 0.00 73 1030.6
20260830082510 15 221 9.7 14.5 0.00 0.03 0.00 72 1030.8
20260830081508 15 211 4.8 11.3 0.00 0.03 0.00 72 1030.8
20260830080512 15 217 6.4 17.7 0.00 0.03 0.00 72 1030.8
20260830074609 15 228 6.4 9.7 0.00 0.03 0.00 71 1030.8
20260830072609 15 221 8.0 11.3 0.00 0.03 0.00 70 1030.7
20260830071610 15 209 4.8 9.7 0.00 0.03 0.00 70 1030.7
20260830070707 15 202 4.8 12.9 0.00 0.03 0.00 68 1030.7
20260830065715 15 232 6.4 9.7 0.00 0.03 0.03 68 1030.8
20260830064714 15 215 4.8 11.3 0.00 0.03 0.03 68 1030.7
20260830063715 15 236 16.1 20.9 0.00 0.03 0.03 66 1030.7
20260830062718 16 235 11.3 16.1 0.00 0.03 0.03 65 1030.5
20260830061716 16 216 11.3 19.3 0.00 0.03 0.03 65 1030.4
20260830060813 16 218 9.7 14.5 0.00 0.03 0.03 64 1030.6
20260830055815 16 223 6.4 11.3 0.00 0.03 0.03 63 1030.4
20260830054912 16 229 11.3 17.7 0.00 0.03 0.03 61 1030.5
20260830053915 16 221 9.7 14.5 0.00 0.03 0.03 61 1030.5